Location: Newark
(47.5833°N, 8.1500°E)
Time: 18:12:31
(UTC+00:00)

Transit 2A - Pass Details

Date: 02 November 2020
Orbit: 595 x 964 km, 66.7° (Epoch: 29 November)

Event Time Altitude Azimuth Distance (km) Brightness Sun altitude
Rises 05:44:21 0° 325° (NW) 3,534 9.0 -5.5°
Reaches altitude 10° 05:47:44 10° 343° (NNW) 2,528 8.4 -4.9°
Maximum altitude 05:51:51 19° 28° (NNE) 1,868 8.2 -4.3°
Drops below altitude 10° 05:55:41 10° 73° (ENE) 2,346 9.5 -3.6°
Sets 05:58:40 0° 91° (E) 3,196 11.0 -3.2°
